User: anonymous   Login
Location: Unspecified
(0.0000°N, 0.0000°E)
Time: 04:13:38
(UTC+00:00)
Language:

KITSAT 1 - Orbit

View from above orbital plane
View from above orbital plane
View from above satellite
View from above satellite

Ground track
Ground track

The orbit data is extracted from the following two-line orbital elements,

1 22077U 92052B   21342.79534535 -.00000058  00000-0  16298-4 0  9993
2 22077  66.0829 140.5187 0012721 305.9400 165.3133 12.86542087377799
Epoch (UTC): 08 December 2021 19:05:17
Eccentricity: 0.0012721
inclination: 66.0829°
perigee height: 1305 km
apogee height: 1325 km
right ascension of ascending node: 140.5187°
argument of perigee: 305.9400°
revolutions per day: 12.86542087
mean anomaly at epoch: 165.3133°
orbit number at epoch: 37779

The dashed part of the orbit path shows where the satellite is in the earth's shadow,  

DLR